ミュラー第3彗星

136P/Mueller 3 (2016)

English version
Home page
Updated on August 6, 2017

---------------------------------------------------------------------

・ プロフィール

・ 写真集

・ 軌道要素

Epoch 2016 May 12.0 TT = JDT 2457520.5
T 2016 May 31.20942 TT                                  MPCW
q   2.9790848            (2000.0)            P               Q
n   0.11436716     Peri.  225.17195     +0.99248894     -0.05222997
a   4.2034106      Node   137.45354     +0.08172221     +0.95597629
e   0.2912696      Incl.    9.41591     -0.09103400     +0.28875832
P   8.62
From 240 observations 1998 Aug. 17-2016 Aug. 7, mean residual 0".8.
     Nongravitational parameters Y1 = -1.15, Y2 = -0.0098.

・ 光度変化

        m1 = 0 + 5 logΔ + 33 log r(t - 130)

---------------------------------------------------------------------

軌道要素はM.P.E.C. 2016-Q04に掲載されたものです。
光度グラフはComet for Windowsで作成したものです。

---------------------------------------------------------------------

Copyright(C) Seiichi Yoshida (comet@aerith.net). All rights reserved.